Regional Weather Roundup
Issued by NWS Grand Forks, ND

Home | Current Version | Previous Version | Text Only | Print | Product List | Glossary On
Versions: 1 2 3 4 5 6 7 8 9 10 11 12 13 14 15 16 17 18 19 20 21 22 23 24 25 26 27 28 29 30 31 32 33 34 35 36 37 38 39 40 41 42 43 44 45 46 47 48 49 50
000
ASUS43 KFGF 251610
RWRFGF
PRAIRIE TO PINES  WEATHER ROUNDUP
NATIONAL WEATHER SERVICE EASTERN NORTH DAKOTA/GRAND FORKS ND
1100 AM CDT SUN JUN 25 2017

 **SATELLITE DATA USED TO AUGMENT SKY COVER AT AUTOMATED STATIONS**
 *****  WEATHER ACROSS EASTERN NORTH DAKOTA  *****

CITY           SKY/WX    TMP DP  RH WIND       PRES   REMARKS
GRAND FORKS    PTSUNNY   59  46  62 N8        30.22F
GRAND FRKS AFB FAIR      60  44  56 N10       30.23F
DEVILS LAKE    PTSUNNY   59  43  55 NW9       30.25F
FARGO          FAIR      63  43  48 NW16      30.23F
WAHPETON ARPT  FAIR      61  37  41 N12G20    30.25S
$$

 ***** WEATHER ACROSS CENTRAL AND WESTERN NORTH DAKOTA  *****

CITY           SKY/WX    TMP DP  RH WIND       PRES   REMARKS
BISMARCK       CLOUDY    55  41  59 S6        30.28F
MINOT          PTSUNNY   61  46  57 NW9       30.23F
JAMESTOWN      PTSUNNY   61  45  55 NW10      30.26S
MINOT AFB      FAIR      59  46  60 N6        30.23F
GARRISON         N/A     55  50  83 W6        30.25F
WILLISTON      FAIR      62  48  60 S3        30.28S
DICKINSON      FAIR      63  33  32 NE8       30.27S
HETTINGER      FAIR      71  33  24 W13       30.27F
$$

 *****  OTHER AIRPORT OBSERVATIONS IN OUR AREA  *****

CITY           SKY/WX    TMP DP  RH WIND       PRES   REMARKS
WALHALLA       NOT AVBL
GRAFTON AIRPOR PTSUNNY   59  43  55 NW10      30.25S
VALLEY CITY AR FAIR      61  45  55 NW13G18   30.27S
CANDO          NOT AVBL
CAVALIER APRT  NOT AVBL
GWINNER        MOSUNNY   63  46  55 W8G15     30.26F
SHEYENNE NWR     N/A     62  44  52 NW8       29.95S
ROLLA            N/A     57  45  62 N8        30.26S
 ***** THE ABOVE OBSERVATIONS ARE NON NWS ARE NOT QUALITY
       CONTROLLED AND MAY MIS-REPORT RAIN FOR SNOW...
$$

  *****  WEATHER ACROSS NORTHERN MINNESOTA  *****

CITY           SKY/WX    TMP DP  RH WIND       PRES   REMARKS
FLAG ISLAND    LGT RAIN  54  45  71 NW6       30.15S
WARROAD        FAIR      55  48  76 NW8G16    30.17F
ROSEAU         RAIN      48  43  81 NW13      30.19R
HALLOCK        FAIR      57  45  62 N12       30.22S
THF RVR FALLS  FAIR      57  41  55 NW15G21   30.22S
BAUDETTE       FAIR      55  47  74 N6        30.16R
WASKISH        LGT RAIN  55  46  71 N8        30.16S
CROOKSTON      FAIR      57  45  62 NW16      30.23F
STEPHEN NDAWN    N/A     61  41  48 NW13        N/A
GREENBUSH NDAW   N/A     55  45  67 NW12        N/A
$$
  *****  WEATHER ACROSS CENTRAL AND WEST MINNESOTA  *****

CITY           SKY/WX    TMP DP  RH WIND       PRES   REMARKS
FOSSTON        PTSUNNY   57  46  67 NW15G22   30.21S
BEMIDJI        CLOUDY    55  43  63 NW16G26   30.17S
PARK RAPIDS    PTSUNNY   57  38  48 NW20      30.18S
ELBOW LAKE     FAIR      57  42  57 NW17      30.24S
WADENA         PTSUNNY   57  43  58 NW17G23   30.19S
DETROIT LAKES  FAIR      57  43  58 N15G25    30.23S
MOORHEAD       FAIR      61  43  51 NW10      30.24F
FERGUS FALLS   FAIR      59  43  55 NW16G22   30.22S
MORRIS MN      FAIR      63  43  48 NW16G26   30.23S
STAPLES        PTSUNNY   57  41  54 NW13G21   30.18S
$$
  *****  WEATHER ELSEWHERE ACROSS MINNESOTA  *****

CITY           SKY/WX    TMP DP  RH WIND       PRES   REMARKS
DULUTH         LGT RAIN  51  50  96 NW18G28   30.05R
INTRNTL FALLS  FAIR      53  45  74 N12       30.12S
ELY            LGT RAIN  52  52 100 N3        30.04S
CLOQUET        LGT RAIN  52  46  82 NW14G25   30.08R
WHEATON        FAIR      61  39  44 NW15G22   30.27S
BRAINERD       FAIR      58  43  57 N23       30.16S
HIBBING        RAIN      48  47  96 NW12      30.10R
ALEXANDRIA     FAIR      59  42  53 N18G29    30.22S
SAINT CLOUD    PTSUNNY   59  45  59 N15G26    30.16S
MINNEAPOLIS    CLOUDY    59  49  69 NW17      30.15S
$$

  *****  WEATHER ACROSS SOUTH DAKOTA  *****

CITY           SKY/WX    TMP DP  RH WIND       PRES   REMARKS
SIOUX FALLS    FAIR      63  45  51 NW18G26   30.29F
BROOKINGS      FAIR      61  45  55 NW14G24   30.29S
WATERTOWN      FAIR      61  43  51 NW16G23   30.28S
HURON          FAIR      63  42  46 NW7       30.31F
SISSETON         N/A     64  44  48 NW20      30.25F
ABERDEEN       FAIR      64  42  44 NW13      30.29F
MITCHELL       NOT AVBL
PIERRE         NOT AVBL
MOBRIDGE       FAIR      67  37  33 S9        30.26F
RAPID CITY     FAIR      68  35  29 S13       30.32F
$$

  *****  SOME WEATHER IN NEARBY STATES *****

CITY           SKY/WX    TMP DP  RH WIND       PRES   REMARKS
GLASGOW MT     FAIR      68  39  34 NW5       30.27F
GREAT FALLS MT FAIR      66  42  41 SE6       30.30F
CHEYENNE WY    CLOUDY    58  43  57 SE6       30.41F
SCOTTSBLUFF NE CLOUDY    66  38  35 SE10      30.35F
OMAHA NE       FAIR      69  43  38 NW16G24   30.32F
DES MOINES IA  FAIR      68  43  40 NW16G25   30.25R
DAVENPORT IA   FAIR      66  48  52 NW16      30.18S
CHICAGO IL     FAIR      68  46  45 W18G25    30.10S
EAU CLAIRE WI  CLOUDY    60  51  72 W13G20    30.09R
LA CROSSE WI   CLOUDY    65  52  62 W6        30.12S
$$

  *****  SOME NATIONAL WEATHER *****

CITY           SKY/WX    TMP DP  RH WIND       PRES   REMARKS
LA GUARDIA NY  PTSUNNY   82  53  36 W7        29.97F
RALEIGH NC     PTSUNNY   80  67  64 NW5       30.10R
ATLANTA GA     PTSUNNY   75  64  68 NW12      30.17R
NEW ORLEANS LA PTSUNNY   84  74  71 N9        30.15R HX  91
OKLAHOMA CITY  FAIR      82  48  30 SE10      30.26F
ALBUQUERQUE NM FAIR      76  51  41 SW7       30.32S
SALT LAKE CITY FAIR      80  43  26 VRB5      30.20S
LOS ANGELES CA FAIR      70  62  76 SW5       29.91S
BOISE ID       FAIR      77  42  28 S10       30.13F
SEATTLE WA     FAIR      74  55  51 NW3       29.94F
$$

*** WEATHER ACROSS MANITOBA...SASKATCHEWAN AND ONTARIO ***
                ***ONTARIO***

CITY           SKY/WX    TMP DP  RH WIND       PRES   REMARKS
GERALDTON      PTSUNNY   55  37  50 VRB9      30.05S
THUNDER BAY    CLOUDY    59  48  67 NE7       30.03R
SIOUX LOOKOUT  CLOUDY    54  41  62 N5        30.11R
TORONTO        PTSUNNY   63  55  77 W16G31    29.95R THUNDER
BIG TROUT LK   PTSUNNY   57  37  47 VRB2      30.04F
PICKLE LAKE    PTSUNNY   57  37  47 NW7       30.08F
DRYDEN         PTSUNNY   54  43  66 NE8       30.11S
KENORA         PTSUNNY   52  46  82 NW7       30.15S
$$
                *** MANITOBA***

CITY           SKY/WX    TMP DP  RH WIND       PRES   REMARKS
BRANDON        PTSUNNY   59  43  55 N7        30.26S
DAUPHIN        MOSUNNY   61  41  48 NW7       30.25F
ISLAND LAKE    PTSUNNY   61  41  48 W7        30.11F
PILOT MOUND      N/A     54  41  62 N7          N/A
THE PAS        MOSUNNY   63  41  45 NW7       30.23S
THOMPSON       PTSUNNY   59  45  58 NW10      30.11S
WINNIPEG       PTSUNNY   57  45  62 NW8       30.22S
LYNN LAKE      MOSUNNY   63  39  42 N15G24    30.18R
CHURCHILL      MOSUNNY   48  41  76 N17G24    30.06R
GILLAM         PTSUNNY   61  46  59 NW10G18   30.03F
$$
                ***SASKATCHEWAN***

CITY           SKY/WX    TMP DP  RH WIND       PRES   REMARKS
ESTEVAN        MOSUNNY   63  45  51 N5        30.27R
KINDERSLEY     MOSUNNY   59  48  67 E7        30.29F
LLOYDMINSTER   MOSUNNY   61  50  67 S7        30.29S
PRINCE ALBERT  MOSUNNY   63  41  45 CALM      30.31S
REGINA         MOSUNNY   63  43  48 E6        30.28S
YORKTON        PTSUNNY   59  39  47 VRB8      30.28S
N. BATTLEFORD  SUNNY     61  54  77 VRB3      30.32S
LA RONGE       MOSUNNY   64  39  39 VRB2      30.27S
SASKATOON      MOSUNNY   63  43  48 E7        30.31R
SWIFT CURRENT  SUNNY     61  50  67 NW9       30.28F
$$
NOTE: THESE ARE AUTOMATED STATIONS WITH LIMITED QUALITY CONTROL
      "FAIR" INDICATES FEW OR NO CLOUDS BELOW 12,000 FEET WITH NO
      SIGNIFICANT WEATHER AND/OR OBSTRUCTIONS TO VISIBILITY.
      SKY/WX - SKY CONDITION AND SIGNIFICANT WEATHER.
      TMP - AIR TEMPERATURE.    DP   - DEWPOINT TEMPERATURE.
      RH  - RELATIVE HUMIDITY.  PRES - PRESSURE.
      HX  - HEAT INDEX.         WCI  - WIND CHILL INDEX.
$




USA.gov is the U.S. government's official web portal to all federal, state and local government web resources and services.